Location: Hochstatterhof
(48.7256°N, 10.3487°E)
Time: 00:04:31
(UTC+00:00)

H-2A R/B - Visible Passes

Search period start: 19 April 2024 00:00
Search period end: 29 April 2024 00:00
Orbit: 730 x 834 km, 98.2° (Epoch: 18 April)

Date Brightness Start Highest point End Pass type
(mag) Time Alt. Az. Time Alt. Az. Time Alt. Az.
19 Apr 2.5 03:44:36 10° NNE 03:49:38 67° ESE 03:54:46 10° S visible
20 Apr 3.6 03:13:07 10° NNE 03:17:47 36° E 03:22:31 10° SSE visible
21 Apr 4.5 02:42:05 10° NE 02:45:48 20° E 02:49:33 10° SE visible
22 Apr 5.1 02:12:42 10° ENE 02:13:39 10° E 02:14:37 10° E visible
23 Apr 3.5 03:17:16 10° NNE 03:22:03 40° E 03:26:56 10° SSE visible
24 Apr 4.4 02:46:07 10° NE 02:50:04 22° E 02:54:05 10° SE visible
25 Apr 4.9 02:16:04 10° ENE 02:17:57 12° E 02:19:51 10° ESE visible
26 Apr 3.3 03:21:23 10° NNE 03:26:18 44° E 03:31:18 10° S visible
27 Apr 4.3 02:50:10 10° NE 02:54:20 24° E 02:58:35 10° SSE visible
28 Apr 4.8 02:19:46 10° ENE 02:22:14 13° E 02:24:43 10° ESE visible
